"Time","Value","Approval","myLocation"
"2023-04-21 00:00",2.74140171768333,"Approved","OW502"
"2023-04-21 01:00",2.74240621008588,"Approved","OW502"
"2023-04-21 02:00",2.74211070248844,"Approved","OW502"
"2023-04-21 03:00",2.74511519489099,"Approved","OW502"
"2023-04-21 04:00",2.74261968729355,"Approved","OW502"
"2023-04-21 05:00",2.7438241796961,"Approved","OW502"
"2023-04-21 06:00",2.74452867209866,"Approved","OW502"
"2023-04-21 07:00",2.74553316450121,"Approved","OW502"
"2023-04-21 08:00",2.74603765690377,"Approved","OW502"
"2023-04-21 09:00",2.74714214930632,"Approved","OW502"
"2023-04-21 10:00",2.74694664170887,"Approved","OW502"
"2023-04-21 11:00",2.74995113411143,"Approved","OW502"
"2023-04-21 12:00",2.74835562651398,"Approved","OW502"
"2023-04-21 13:00",2.74506011891654,"Approved","OW502"
"2023-04-21 14:00",2.74376461131909,"Approved","OW502"
"2023-04-21 15:00",2.74546910372165,"Approved","OW502"
"2023-04-21 16:00",2.7464735961242,"Approved","OW502"
"2023-04-21 17:00",2.74687808852676,"Approved","OW502"
"2023-04-21 18:00",2.74458258092931,"Approved","OW502"
"2023-04-21 19:00",2.74498707333187,"Approved","OW502"
"2023-04-21 20:00",2.74609156573442,"Approved","OW502"
"2023-04-21 21:00",2.74599605813697,"Approved","OW502"
"2023-04-21 22:00",2.74500055053953,"Approved","OW502"
"2023-04-21 23:00",2.74680504294208,"Approved","OW502"
"2023-04-22 00:00",2.74540953534464,"Approved","OW502"
"2023-04-22 01:00",2.74531402774719,"Approved","OW502"
"2023-04-22 02:00",2.74591852014975,"Approved","OW502"
"2023-04-22 03:00",2.7448230125523,"Approved","OW502"
"2023-04-22 04:00",2.74482750495486,"Approved","OW502"
"2023-04-22 05:00",2.74413199735741,"Approved","OW502"
"2023-04-22 06:00",2.74453648975996,"Approved","OW502"
"2023-04-22 07:00",2.74484098216252,"Approved","OW502"
"2023-04-22 08:00",2.74474547456507,"Approved","OW502"
"2023-04-22 09:00",2.74514996696763,"Approved","OW502"
"2023-04-22 10:00",2.74665445937018,"Approved","OW502"
"2023-04-22 11:00",2.74625895177274,"Approved","OW502"
"2023-04-22 12:00",2.74446344417529,"Approved","OW502"
"2023-04-22 13:00",2.74376793657785,"Approved","OW502"
"2023-04-22 14:00",2.7418724289804,"Approved","OW502"
"2023-04-22 15:00",2.74007692138295,"Approved","OW502"
"2023-04-22 16:00",2.74048141378551,"Approved","OW502"
"2023-04-22 17:00",2.73928590618806,"Approved","OW502"
"2023-04-22 18:00",2.73849039859062,"Approved","OW502"
"2023-04-22 19:00",2.73849489099317,"Approved","OW502"
"2023-04-22 20:00",2.73649938339573,"Approved","OW502"
"2023-04-22 21:00",2.73740387579828,"Approved","OW502"
"2023-04-22 22:00",2.73720836820084,"Approved","OW502"
"2023-04-22 23:00",2.73611286060339,"Approved","OW502"
"2023-04-23 00:00",2.73561735300595,"Approved","OW502"
"2023-04-23 01:00",2.7351218454085,"Approved","OW502"
"2023-04-23 02:00",2.73472633781105,"Approved","OW502"
"2023-04-23 03:00",2.73433083021361,"Approved","OW502"
"2023-04-23 04:00",2.73403532261616,"Approved","OW502"
"2023-04-23 05:00",2.73493981501872,"Approved","OW502"
"2023-04-23 06:00",2.73504430742127,"Approved","OW502"
"2023-04-23 07:00",2.73314879982383,"Approved","OW502"
"2023-04-23 08:00",2.73425329222638,"Approved","OW502"
"2023-04-23 09:00",2.73425778462894,"Approved","OW502"
"2023-04-23 10:00",2.73466227703149,"Approved","OW502"
"2023-04-23 11:00",2.73486676943405,"Approved","OW502"
"2023-04-23 12:00",2.7341712618366,"Approved","OW502"
"2023-04-23 13:00",2.73467575423915,"Approved","OW502"
"2023-04-23 14:00",2.73308024664171,"Approved","OW502"
"2023-04-23 15:00",2.73238473904426,"Approved","OW502"
"2023-04-23 16:00",2.73198923144682,"Approved","OW502"
"2023-04-23 17:00",2.73259372384937,"Approved","OW502"
"2023-04-23 18:00",2.73169821625193,"Approved","OW502"
"2023-04-23 19:00",2.73160270865448,"Approved","OW502"
"2023-04-23 20:00",2.73120720105704,"Approved","OW502"
"2023-04-23 21:00",2.73161169345959,"Approved","OW502"
"2023-04-23 22:00",2.73111618586214,"Approved","OW502"
"2023-04-23 23:00",2.7302206782647,"Approved","OW502"
"2023-04-24 00:00",2.73202517066725,"Approved","OW502"
"2023-04-24 01:00",2.73202966306981,"Approved","OW502"
"2023-04-24 02:00",2.73223415547236,"Approved","OW502"
"2023-04-24 03:00",2.73193864787492,"Approved","OW502"
"2023-04-24 04:00",2.73264314027747,"Approved","OW502"
"2023-04-24 05:00",2.73454763268003,"Approved","OW502"
"2023-04-24 06:00",2.73395212508258,"Approved","OW502"
"2023-04-24 07:00",2.73345661748514,"Approved","OW502"
"2023-04-24 08:00",2.73546110988769,"Approved","OW502"
"2023-04-24 09:00",2.73746560229024,"Approved","OW502"
"2023-04-24 10:00",2.7360700946928,"Approved","OW502"
"2023-04-24 11:00",2.73867458709535,"Approved","OW502"
"2023-04-24 12:00",2.73587907949791,"Approved","OW502"
"2023-04-24 13:00",2.73828357190046,"Approved","OW502"
"2023-04-24 14:00",2.73758806430302,"Approved","OW502"
"2023-04-24 15:00",2.74049255670557,"Approved","OW502"
"2023-04-24 16:00",2.74009704910813,"Approved","OW502"
"2023-04-24 17:00",2.73940154151068,"Approved","OW502"
"2023-04-24 18:00",2.73840603391323,"Approved","OW502"
"2023-04-24 19:00",2.74201052631579,"Approved","OW502"
"2023-04-24 20:00",2.74231501871834,"Approved","OW502"
"2023-04-24 21:00",2.7439195111209,"Approved","OW502"
"2023-04-24 22:00",2.74342400352345,"Approved","OW502"
"2023-04-24 23:00",2.74362849592601,"Approved","OW502"
"2023-04-25 00:00",2.74423298832856,"Approved","OW502"
"2023-04-25 01:00",2.74473748073112,"Approved","OW502"
"2023-04-25 02:00",2.74454197313367,"Approved","OW502"
"2023-04-25 03:00",2.74504646553623,"Approved","OW502"
"2023-04-25 04:00",2.74385095793878,"Approved","OW502"
"2023-04-25 05:00",2.74395545034133,"Approved","OW502"
"2023-04-25 06:00",2.74485994274389,"Approved","OW502"
"2023-04-25 07:00",2.74456443514644,"Approved","OW502"
"2023-04-25 08:00",2.744568927549,"Approved","OW502"
"2023-04-25 09:00",2.74387341995155,"Approved","OW502"
"2023-04-25 10:00",2.74387791235411,"Approved","OW502"
"2023-04-25 11:00",2.74518240475666,"Approved","OW502"
"2023-04-25 12:00",2.74418689715922,"Approved","OW502"
"2023-04-25 13:00",2.74299138956177,"Approved","OW502"
"2023-04-25 14:00",2.74339588196433,"Approved","OW502"
"2023-04-25 15:00",2.74080037436688,"Approved","OW502"
"2023-04-25 16:00",2.74680486676943,"Approved","OW502"
"2023-04-25 17:00",2.74480935917199,"Approved","OW502"
"2023-04-25 18:00",2.74501385157454,"Approved","OW502"
"2023-04-25 19:00",2.7464183439771,"Approved","OW502"
"2023-04-25 20:00",2.74642283637965,"Approved","OW502"
"2023-04-25 21:00",2.74742732878221,"Approved","OW502"
"2023-04-25 22:00",2.74763182118476,"Approved","OW502"
"2023-04-25 23:00",2.74783631358732,"Approved","OW502"
"2023-04-26 00:00",2.74894080598987,"Approved","OW502"
"2023-04-26 01:00",2.74764529839242,"Approved","OW502"
"2023-04-26 02:00",2.74854979079498,"Approved","OW502"
"2023-04-26 03:00",2.74855428319753,"Approved","OW502"
"2023-04-26 04:00",2.74765877560009,"Approved","OW502"
"2023-04-26 05:00",2.74766326800264,"Approved","OW502"
"2023-04-26 06:00",2.7474677604052,"Approved","OW502"
"2023-04-26 07:00",2.74537225280775,"Approved","OW502"
"2023-04-26 08:00",2.74667674521031,"Approved","OW502"
"2023-04-26 09:00",2.74578123761286,"Approved","OW502"
"2023-04-26 10:00",2.74708573001542,"Approved","OW502"
"2023-04-26 11:00",2.74689022241797,"Approved","OW502"
"2023-04-26 12:00",2.74649471482052,"Approved","OW502"
"2023-04-26 13:00",2.74579920722308,"Approved","OW502"
"2023-04-26 14:00",2.74330369962563,"Approved","OW502"
"2023-04-26 15:00",2.74210819202819,"Approved","OW502"
"2023-04-26 16:00",2.74241268443074,"Approved","OW502"
"2023-04-26 17:00",2.7377171768333,"Approved","OW502"
"2023-04-26 18:00",2.74112166923585,"Approved","OW502"
"2023-04-26 19:00",2.74132616163841,"Approved","OW502"
"2023-04-26 20:00",2.74043065404096,"Approved","OW502"
"2023-04-26 21:00",2.74083514644351,"Approved","OW502"
"2023-04-26 22:00",2.74213963884607,"Approved","OW502"
"2023-04-26 23:00",2.74324413124862,"Approved","OW502"
"2023-04-27 00:00",2.74514862365118,"Approved","OW502"
"2023-04-27 01:00",2.74615311605373,"Approved","OW502"
"2023-04-27 02:00",2.74815760845629,"Approved","OW502"
"2023-04-27 03:00",2.74926210085884,"Approved","OW502"
"2023-04-27 04:00",2.7482665932614,"Approved","OW502"
"2023-04-27 05:00",2.74977108566395,"Approved","OW502"
"2023-04-27 06:00",2.7499755780665,"Approved","OW502"
"2023-04-27 07:00",2.75298007046906,"Approved","OW502"
"2023-04-27 08:00",2.75238456287161,"Approved","OW502"
"2023-04-27 09:00",2.75408905527417,"Approved","OW502"
"2023-04-27 10:00",2.75479354767672,"Approved","OW502"
"2023-04-27 11:00",2.75479804007928,"Approved","OW502"
"2023-04-27 12:00",2.75390253248183,"Approved","OW502"
"2023-04-27 13:00",2.75310702488439,"Approved","OW502"
"2023-04-27 14:00",2.75231151728694,"Approved","OW502"
"2023-04-27 15:00",2.7509160096895,"Approved","OW502"
"2023-04-27 16:00",2.75192050209205,"Approved","OW502"
"2023-04-27 17:00",2.7505249944946,"Approved","OW502"
"2023-04-27 18:00",2.75292948689716,"Approved","OW502"
"2023-04-27 19:00",2.75233397929971,"Approved","OW502"
"2023-04-27 20:00",2.75113847170227,"Approved","OW502"
"2023-04-27 21:00",2.75184296410482,"Approved","OW502"
"2023-04-27 22:00",2.75244745650738,"Approved","OW502"
"2023-04-27 23:00",2.75255194890993,"Approved","OW502"
"2023-04-28 00:00",2.75345644131249,"Approved","OW502"
"2023-04-28 01:00",2.75226093371504,"Approved","OW502"
"2023-04-28 02:00",2.7535654261176,"Approved","OW502"
"2023-04-28 03:00",2.75366991852015,"Approved","OW502"
"2023-04-28 04:00",2.7533744109227,"Approved","OW502"
"2023-04-28 05:00",2.75457890332526,"Approved","OW502"
"2023-04-28 06:00",2.75488339572781,"Approved","OW502"
"2023-04-28 07:00",2.75458788813037,"Approved","OW502"
"2023-04-28 08:00",2.75459238053292,"Approved","OW502"
"2023-04-28 09:00",2.75579687293548,"Approved","OW502"
"2023-04-28 10:00",2.75350136533803,"Approved","OW502"
"2023-04-28 11:00",2.75470585774059,"Approved","OW502"
"2023-04-28 12:00",2.75031035014314,"Approved","OW502"
"2023-04-28 13:00",2.74961484254569,"Approved","OW502"
"2023-04-28 14:00",2.74631933494825,"Approved","OW502"
"2023-04-28 15:00",2.7450238273508,"Approved","OW502"
"2023-04-28 16:00",2.74712831975336,"Approved","OW502"
"2023-04-28 17:00",2.74353281215591,"Approved","OW502"
"2023-04-28 18:00",2.74423730455847,"Approved","OW502"
"2023-04-28 19:00",2.74664179696102,"Approved","OW502"
"2023-04-28 20:00",2.74934628936358,"Approved","OW502"
"2023-04-28 21:00",2.74965078176613,"Approved","OW502"
"2023-04-28 22:00",2.74935527416869,"Approved","OW502"
"2023-04-28 23:00",2.75035976657124,"Approved","OW502"
"2023-04-29 00:00",2.74966425897379,"Approved","OW502"
"2023-04-29 01:00",2.75146875137635,"Approved","OW502"
"2023-04-29 02:00",2.7514732437789,"Approved","OW502"
"2023-04-29 03:00",2.75057773618146,"Approved","OW502"
"2023-04-29 04:00",2.75008222858401,"Approved","OW502"
"2023-04-29 05:00",2.75058672098657,"Approved","OW502"
"2023-04-29 06:00",2.74939121338912,"Approved","OW502"
"2023-04-29 07:00",2.75169570579168,"Approved","OW502"
"2023-04-29 08:00",2.75220019819423,"Approved","OW502"
"2023-04-29 09:00",2.75080469059679,"Approved","OW502"
"2023-04-29 10:00",2.75100918299934,"Approved","OW502"
"2023-04-29 11:00",2.75131367540189,"Approved","OW502"
"2023-04-29 12:00",2.74521816780445,"Approved","OW502"
"2023-04-29 13:00",2.746622660207,"Approved","OW502"
"2023-04-29 14:00",2.74262715260956,"Approved","OW502"
"2023-04-29 15:00",2.74223164501211,"Approved","OW502"
"2023-04-29 16:00",2.74353613741467,"Approved","OW502"
"2023-04-29 17:00",2.74094062981722,"Approved","OW502"
"2023-04-29 18:00",2.74254512221978,"Approved","OW502"
"2023-04-29 19:00",2.74564961462233,"Approved","OW502"
"2023-04-29 20:00",2.74585410702488,"Approved","OW502"
"2023-04-29 21:00",2.74645859942744,"Approved","OW502"
"2023-04-29 22:00",2.74686309182999,"Approved","OW502"
"2023-04-29 23:00",2.74696758423255,"Approved","OW502"
"2023-04-30 00:00",2.7473720766351,"Approved","OW502"
"2023-04-30 01:00",2.74857656903766,"Approved","OW502"
"2023-04-30 02:00",2.74728106144021,"Approved","OW502"
"2023-04-30 03:00",2.74768555384277,"Approved","OW502"
"2023-04-30 04:00",2.74849004624532,"Approved","OW502"
"2023-04-30 05:00",2.74859453864787,"Approved","OW502"
"2023-04-30 06:00",2.74889903105043,"Approved","OW502"
"2023-04-30 07:00",2.74880352345298,"Approved","OW502"
"2023-04-30 08:00",2.74990801585554,"Approved","OW502"
"2023-04-30 09:00",2.74871250825809,"Approved","OW502"
"2023-04-30 10:00",2.74801700066065,"Approved","OW502"
"2023-04-30 11:00",2.7476214930632,"Approved","OW502"
"2023-04-30 12:00",2.74382598546576,"Approved","OW502"
"2023-04-30 13:00",2.74313047786831,"Approved","OW502"
"2023-04-30 14:00",2.74063497027087,"Approved","OW502"
"2023-04-30 15:00",2.74043946267342,"Approved","OW502"
"2023-04-30 16:00",2.74184395507597,"Approved","OW502"
"2023-04-30 17:00",2.73834844747853,"Approved","OW502"
"2023-04-30 18:00",2.74085293988108,"Approved","OW502"
"2023-04-30 19:00",2.74205743228364,"Approved","OW502"
"2023-04-30 20:00",2.74446192468619,"Approved","OW502"
"2023-04-30 21:00",2.74426641708875,"Approved","OW502"
"2023-04-30 22:00",2.7453709094913,"Approved","OW502"
"2023-04-30 23:00",2.74487540189386,"Approved","OW502"
"2023-05-01 00:00",2.74787989429641,"Approved","OW502"
"2023-05-01 01:00",2.74668438669896,"Approved","OW502"
"2023-05-01 02:00",2.74728887910152,"Approved","OW502"
"2023-05-01 03:00",2.75009337150407,"Approved","OW502"
"2023-05-01 04:00",2.74929786390663,"Approved","OW502"
"2023-05-01 05:00",2.74890235630918,"Approved","OW502"
"2023-05-01 06:00",2.75070684871174,"Approved","OW502"
"2023-05-01 07:00",2.75151134111429,"Approved","OW502"
"2023-05-01 08:00",2.75091583351685,"Approved","OW502"
"2023-05-01 09:00",2.7521203259194,"Approved","OW502"
"2023-05-01 10:00",2.75202481832196,"Approved","OW502"
"2023-05-01 11:00",2.75342931072451,"Approved","OW502"
"2023-05-01 12:00",2.75273380312706,"Approved","OW502"
"2023-05-01 13:00",2.75353829552962,"Approved","OW502"
"2023-05-01 14:00",2.75084278793217,"Approved","OW502"
"2023-05-01 15:00",2.75084728033473,"Approved","OW502"
"2023-05-01 16:00",2.75105177273728,"Approved","OW502"
"2023-05-01 17:00",2.74935626513984,"Approved","OW502"
"2023-05-01 18:00",2.75346075754239,"Approved","OW502"
"2023-05-01 19:00",2.75336524994495,"Approved","OW502"
"2023-05-01 20:00",2.7551697423475,"Approved","OW502"
"2023-05-01 21:00",2.75547423475006,"Approved","OW502"
"2023-05-01 22:00",2.75637872715261,"Approved","OW502"
"2023-05-01 23:00",2.75828321955516,"Approved","OW502"
"2023-05-02 00:00",2.75908771195772,"Approved","OW502"
"2023-05-02 01:00",2.75939220436027,"Approved","OW502"
"2023-05-02 02:00",2.75879669676283,"Approved","OW502"
"2023-05-02 03:00",2.75960118916538,"Approved","OW502"
"2023-05-02 04:00",2.76060568156794,"Approved","OW502"
"2023-05-02 05:00",2.76051017397049,"Approved","OW502"
"2023-05-02 06:00",2.76121466637305,"Approved","OW502"
"2023-05-02 07:00",2.7611191587756,"Approved","OW502"
"2023-05-02 08:00",2.76072365117815,"Approved","OW502"
"2023-05-02 09:00",2.76132814358071,"Approved","OW502"
"2023-05-02 10:00",2.76053263598326,"Approved","OW502"
"2023-05-02 11:00",2.76063712838582,"Approved","OW502"
"2023-05-02 12:00",2.75684162078837,"Approved","OW502"
"2023-05-02 13:00",2.75564611319093,"Approved","OW502"
"2023-05-02 14:00",2.75325060559348,"Approved","OW502"
"2023-05-02 15:00",2.75165509799604,"Approved","OW502"
"2023-05-02 16:00",2.75435959039859,"Approved","OW502"
"2023-05-02 17:00",2.75226408280114,"Approved","OW502"
"2023-05-02 18:00",2.7510685752037,"Approved","OW502"
"2023-05-02 19:00",2.75517306760625,"Approved","OW502"
"2023-05-02 20:00",2.75477756000881,"Approved","OW502"
"2023-05-02 21:00",2.75548205241136,"Approved","OW502"
"2023-05-02 22:00",2.75638654481392,"Approved","OW502"
"2023-05-02 23:00",2.75809103721647,"Approved","OW502"
"2023-05-03 00:00",2.75689552961903,"Approved","OW502"
"2023-05-03 01:00",2.75700002202158,"Approved","OW502"
"2023-05-03 02:00",2.75800451442414,"Approved","OW502"
"2023-05-03 03:00",2.75910900682669,"Approved","OW502"
"2023-05-03 04:00",2.75811349922924,"Approved","OW502"
"2023-05-03 05:00",2.7587179916318,"Approved","OW502"
"2023-05-03 06:00",2.75762248403435,"Approved","OW502"
"2023-05-03 07:00",2.75802697643691,"Approved","OW502"
"2023-05-03 08:00",2.75793146883946,"Approved","OW502"
"2023-05-03 09:00",2.75813596124202,"Approved","OW502"
"2023-05-03 10:00",2.75814045364457,"Approved","OW502"
"2023-05-03 11:00",2.75754494604713,"Approved","OW502"
"2023-05-03 12:00",2.75414943844968,"Approved","OW502"
"2023-05-03 13:00",2.75295393085224,"Approved","OW502"
"2023-05-03 14:00",2.75325842325479,"Approved","OW502"
"2023-05-03 15:00",2.75056291565734,"Approved","OW502"
"2023-05-03 16:00",2.7516674080599,"Approved","OW502"
"2023-05-03 17:00",2.74867190046245,"Approved","OW502"
"2023-05-03 18:00",2.75257639286501,"Approved","OW502"
"2023-05-03 19:00",2.75698088526756,"Approved","OW502"
"2023-05-03 20:00",2.75538537767012,"Approved","OW502"
"2023-05-03 21:00",2.75638987007267,"Approved","OW502"
"2023-05-03 22:00",2.75669436247523,"Approved","OW502"
"2023-05-03 23:00",2.75729885487778,"Approved","OW502"
"2023-05-04 00:00",2.75880334728033,"Approved","OW502"
"2023-05-04 01:00",2.75880783968289,"Approved","OW502"
"2023-05-04 02:00",2.75971233208544,"Approved","OW502"
"2023-05-04 03:00",2.758616824488,"Approved","OW502"
"2023-05-04 04:00",2.76012131689055,"Approved","OW502"
"2023-05-04 05:00",2.75972580929311,"Approved","OW502"
"2023-05-04 06:00",2.76003030169566,"Approved","OW502"
"2023-05-04 07:00",2.76073479409822,"Approved","OW502"
"2023-05-04 08:00",2.76013928650077,"Approved","OW502"
"2023-05-04 09:00",2.75994377890333,"Approved","OW502"
"2023-05-04 10:00",2.76024827130588,"Approved","OW502"
"2023-05-04 11:00",2.75945276370843,"Approved","OW502"
"2023-05-04 12:00",2.75615725611099,"Approved","OW502"
"2023-05-04 13:00",2.75466174851354,"Approved","OW502"
"2023-05-04 14:00",2.7534662409161,"Approved","OW502"
"2023-05-04 15:00",2.75047073331865,"Approved","OW502"
"2023-05-04 16:00",2.75147522572121,"Approved","OW502"
"2023-05-04 17:00",2.74777971812376,"Approved","OW502"
"2023-05-04 18:00",2.74598421052632,"Approved","OW502"
"2023-05-04 19:00",2.74928870292887,"Approved","OW502"
"2023-05-04 20:00",2.75159319533142,"Approved","OW502"
"2023-05-04 21:00",2.75329768773398,"Approved","OW502"
"2023-05-04 22:00",2.75610218013653,"Approved","OW502"
"2023-05-04 23:00",2.75590667253909,"Approved","OW502"
"2023-05-05 00:00",2.75711116494164,"Approved","OW502"
"2023-05-05 01:00",2.7564156573442,"Approved","OW502"
"2023-05-05 02:00",2.75742014974675,"Approved","OW502"
"2023-05-05 03:00",2.75812464214931,"Approved","OW502"
"2023-05-05 04:00",2.75922913455186,"Approved","OW502"
"2023-05-05 05:00",2.75793362695442,"Approved","OW502"
"2023-05-05 06:00",2.75863811935697,"Approved","OW502"
"2023-05-05 07:00",2.75864261175952,"Approved","OW502"
"2023-05-05 08:00",2.75884710416208,"Approved","OW502"
"2023-05-05 09:00",2.75955159656463,"Approved","OW502"
"2023-05-05 10:00",2.76095608896719,"Approved","OW502"
"2023-05-05 11:00",2.75976058136974,"Approved","OW502"
"2023-05-05 12:00",2.7555650737723,"Approved","OW502"
"2023-05-05 13:00",2.75376956617485,"Approved","OW502"
"2023-05-05 14:00",2.75157405857741,"Approved","OW502"
"2023-05-05 15:00",2.75037855097996,"Approved","OW502"
"2023-05-05 16:00",2.75218304338251,"Approved","OW502"
"2023-05-05 17:00",2.75128753578507,"Approved","OW502"
"2023-05-05 18:00",2.75399202818762,"Approved","OW502"
"2023-05-05 19:00",2.75449652059018,"Approved","OW502"
"2023-05-05 20:00",2.75670101299273,"Approved","OW502"
"2023-05-05 21:00",2.75790550539529,"Approved","OW502"
"2023-05-05 22:00",2.75870999779784,"Approved","OW502"
"2023-05-05 23:00",2.7607144902004,"Approved","OW502"
"2023-05-06 00:00",2.76171898260295,"Approved","OW502"
"2023-05-06 01:00",2.76152347500551,"Approved","OW502"
"2023-05-06 02:00",2.76362796740806,"Approved","OW502"
"2023-05-06 03:00",2.76433245981061,"Approved","OW502"
"2023-05-06 04:00",2.76503695221317,"Approved","OW502"
"2023-05-06 05:00",2.76474144461572,"Approved","OW502"
"2023-05-06 06:00",2.76604593701828,"Approved","OW502"
"2023-05-06 07:00",2.76455042942083,"Approved","OW502"
"2023-05-06 08:00",2.76525492182339,"Approved","OW502"
"2023-05-06 09:00",2.76615941422594,"Approved","OW502"
"2023-05-06 10:00",2.7675639066285,"Approved","OW502"
"2023-05-06 11:00",2.76786839903105,"Approved","OW502"
"2023-05-06 12:00",2.7685728914336,"Approved","OW502"
"2023-05-06 13:00",2.76847738383616,"Approved","OW502"
"2023-05-06 14:00",2.76738187623871,"Approved","OW502"
"2023-05-06 15:00",2.76758636864127,"Approved","OW502"
"2023-05-06 16:00",2.76989086104382,"Approved","OW502"
"2023-05-06 17:00",2.76789535344638,"Approved","OW502"
"2023-05-06 18:00",2.76849984584893,"Approved","OW502"
"2023-05-06 19:00",2.76740433825149,"Approved","OW502"
"2023-05-06 20:00",2.76690883065404,"Approved","OW502"
"2023-05-06 21:00",2.7646133230566,"Approved","OW502"
"2023-05-06 22:00",2.76551781545915,"Approved","OW502"
"2023-05-06 23:00",2.7631223078617,"Approved","OW502"
"2023-05-07 00:00",2.76352680026426,"Approved","OW502"
"2023-05-07 01:00",2.76303129266681,"Approved","OW502"
"2023-05-07 02:00",2.76233578506937,"Approved","OW502"
"2023-05-07 03:00",2.76014027747192,"Approved","OW502"
"2023-05-07 04:00",2.75984476987448,"Approved","OW502"
"2023-05-07 05:00",2.76064926227703,"Approved","OW502"
"2023-05-07 06:00",2.75835375467959,"Approved","OW502"
"2023-05-07 07:00",2.75595824708214,"Approved","OW502"
"2023-05-07 08:00",2.7540627394847,"Approved","OW502"
"2023-05-07 09:00",2.75276723188725,"Approved","OW502"
"2023-05-07 10:00",2.7527717242898,"Approved","OW502"
"2023-05-07 11:00",2.75307621669236,"Approved","OW502"
"2023-05-07 12:00",2.75178070909491,"Approved","OW502"
"2023-05-07 13:00",2.75148520149747,"Approved","OW502"
"2023-05-07 14:00",2.75038969390002,"Approved","OW502"
"2023-05-07 15:00",2.74969418630258,"Approved","OW502"
"2023-05-07 16:00",2.74979867870513,"Approved","OW502"
"2023-05-07 17:00",2.74750317110769,"Approved","OW502"
"2023-05-07 18:00",2.74760766351024,"Approved","OW502"
"2023-05-07 19:00",2.74491215591279,"Approved","OW502"
"2023-05-07 20:00",2.74421664831535,"Approved","OW502"
"2023-05-07 21:00",2.7446211407179,"Approved","OW502"
"2023-05-07 22:00",2.74432563312046,"Approved","OW502"
"2023-05-07 23:00",2.74413012552301,"Approved","OW502"
"2023-05-08 00:00",2.74433461792557,"Approved","OW502"
"2023-05-08 01:00",2.74423911032812,"Approved","OW502"
"2023-05-08 02:00",2.74314360273068,"Approved","OW502"
"2023-05-08 03:00",2.74304809513323,"Approved","OW502"
"2023-05-08 04:00",2.74235258753578,"Approved","OW502"
"2023-05-08 05:00",2.74165707993834,"Approved","OW502"
"2023-05-08 06:00",2.74216157234089,"Approved","OW502"
"2023-05-08 07:00",2.74096606474345,"Approved","OW502"
"2023-05-08 08:00",2.740970557146,"Approved","OW502"
"2023-05-08 09:00",2.74147504954856,"Approved","OW502"
"2023-05-08 10:00",2.74247954195111,"Approved","OW502"
"2023-05-08 11:00",2.74308403435367,"Approved","OW502"
"2023-05-08 12:00",2.74098852675622,"Approved","OW502"
"2023-05-08 13:00",2.73849301915878,"Approved","OW502"
"2023-05-08 14:00",2.74009751156133,"Approved","OW502"
"2023-05-08 15:00",2.73810200396388,"Approved","OW502"
"2023-05-08 16:00",2.73820649636644,"Approved","OW502"
"2023-05-08 17:00",2.73641098876899,"Approved","OW502"
"2023-05-08 18:00",2.73691548117155,"Approved","OW502"
"2023-05-08 19:00",2.7374199735741,"Approved","OW502"